JTM125 RCTP-VHHH

Flight info

Callsign JTM125
Flight time 1h 37m
Altitude 33100
Route CHALI T3 MKG A1 MAGOG CH
Aircraft B738/M-SDE2FGHIRWY/L

Departure

Time 2026-05-05 07:28
Airport Taiwan Taoyuan International Airport (RCTP)

Arrival

Time 2026-05-05 09:06
Airport Hong Kong International Airport (VHHH)
Time Latitude Longitude Altitude Speed Heading
2026-05-05 07:16 25.08292 121.23597 115 ft 0 kts 141°
2026-05-05 07:21 25.08293 121.23596 115 ft 0 kts 141°
2026-05-05 07:21 25.08297 121.23592 115 ft 0 kts 141°
2026-05-05 07:22 25.08305 121.23586 115 ft 1 kts 141°
2026-05-05 07:22 25.08320 121.23573 115 ft 3 kts 141°
2026-05-05 07:22 25.08341 121.23553 115 ft 3 kts 145°
2026-05-05 07:22 25.08351 121.23560 115 ft 1 kts 257°
2026-05-05 07:23 25.08350 121.23548 115 ft 4 kts 276°
2026-05-05 07:23 25.08359 121.23498 115 ft 8 kts 279°
2026-05-05 07:23 25.08338 121.23425 115 ft 12 kts 231°
2026-05-05 07:23 25.08273 121.23341 115 ft 15 kts 228°
2026-05-05 07:24 25.08190 121.23235 115 ft 21 kts 230°
2026-05-05 07:24 25.08085 121.23102 115 ft 22 kts 229°
2026-05-05 07:24 25.07981 121.22969 115 ft 22 kts 229°
2026-05-05 07:24 25.07876 121.22837 115 ft 22 kts 229°
2026-05-05 07:25 25.07773 121.22704 115 ft 22 kts 229°
2026-05-05 07:25 25.07671 121.22572 115 ft 22 kts 229°
2026-05-05 07:25 25.07571 121.22446 115 ft 21 kts 230°
2026-05-05 07:25 25.07474 121.22323 115 ft 21 kts 228°
2026-05-05 07:26 25.07376 121.22199 115 ft 21 kts 230°
2026-05-05 07:26 25.07279 121.22076 115 ft 21 kts 234°
2026-05-05 07:26 25.07189 121.21950 115 ft 20 kts 250°
2026-05-05 07:26 25.07259 121.21845 115 ft 18 kts 321°
2026-05-05 07:27 25.07359 121.21759 115 ft 18 kts 322°
2026-05-05 07:27 25.07448 121.21796 115 ft 15 kts 52°
2026-05-05 07:27 25.07534 121.21909 115 ft 36 kts 49°
2026-05-05 07:27 25.07901 121.22375 115 ft 120 kts 49°
2026-05-05 07:28 25.08602 121.23264 186 ft 179 kts 49°
2026-05-05 07:28 25.09491 121.24294 902 ft 193 kts 48°
2026-05-05 07:28 25.10328 121.25309 2226 ft 177 kts 52°
2026-05-05 07:28 25.11146 121.26402 2880 ft 195 kts 53°
2026-05-05 07:29 25.12041 121.27583 3473 ft 212 kts 51°
2026-05-05 07:29 25.13032 121.28854 4122 ft 227 kts 50°
2026-05-05 07:29 25.14266 121.29973 4885 ft 235 kts 24°
2026-05-05 07:29 25.15858 121.30291 5704 ft 237 kts 353°
2026-05-05 07:30 25.17434 121.29857 6553 ft 236 kts 333°
2026-05-05 07:30 25.19830 121.27556 8355 ft 230 kts 300°
2026-05-05 07:30 25.20703 121.26095 9214 ft 232 kts 300°
2026-05-05 07:31 25.21604 121.24621 10077 ft 234 kts 301°
2026-05-05 07:31 25.22535 121.23160 10946 ft 235 kts 301°
2026-05-05 07:31 25.23486 121.21690 11620 ft 245 kts 301°
2026-05-05 07:31 25.24507 121.20110 12292 ft 257 kts 300°
2026-05-05 07:32 25.25554 121.18491 12949 ft 267 kts 300°
2026-05-05 07:32 25.26613 121.16773 13641 ft 276 kts 296°
2026-05-05 07:32 25.27363 121.14821 14262 ft 281 kts 279°
2026-05-05 07:32 25.27450 121.12659 14842 ft 290 kts 261°
2026-05-05 07:33 25.26907 121.10495 15471 ft 300 kts 248°
2026-05-05 07:33 25.25898 121.08446 16123 ft 312 kts 237°
2026-05-05 07:33 25.24513 121.06526 16701 ft 325 kts 231°
2026-05-05 07:33 25.22976 121.04672 17230 ft 337 kts 230°
2026-05-05 07:34 25.21343 121.02731 17677 ft 350 kts 230°
2026-05-05 07:34 25.19643 121.00708 18102 ft 364 kts 228°
2026-05-05 07:34 25.17819 120.98708 18520 ft 377 kts 226°
2026-05-05 07:34 25.15934 120.96740 19288 ft 378 kts 226°
2026-05-05 07:35 25.14013 120.94746 20116 ft 377 kts 226°
2026-05-05 07:35 25.12127 120.92774 20809 ft 380 kts 226°
2026-05-05 07:35 25.10226 120.90761 21491 ft 382 kts 227°
2026-05-05 07:35 25.08313 120.88718 22143 ft 385 kts 227°
2026-05-05 07:36 25.06369 120.86630 22754 ft 388 kts 227°
2026-05-05 07:36 25.04459 120.84574 23363 ft 391 kts 228°
2026-05-05 07:36 25.02499 120.82458 23973 ft 394 kts 228°
2026-05-05 07:36 25.00527 120.80334 24576 ft 397 kts 228°
2026-05-05 07:37 24.98540 120.78202 25196 ft 400 kts 228°
2026-05-05 07:37 24.96554 120.76070 25804 ft 402 kts 228°
2026-05-05 07:37 24.94554 120.73923 26290 ft 407 kts 227°
2026-05-05 07:37 24.92508 120.71732 26849 ft 410 kts 228°
2026-05-05 07:38 24.90483 120.69565 27636 ft 406 kts 228°
2026-05-05 07:38 24.88453 120.67392 28411 ft 403 kts 228°
2026-05-05 07:38 24.86492 120.65301 29549 ft 390 kts 229°
2026-05-05 07:38 24.84590 120.63277 30450 ft 382 kts 229°
2026-05-05 07:39 24.82674 120.61234 31089 ft 380 kts 229°
2026-05-05 07:39 24.80790 120.59217 31635 ft 380 kts 230°
2026-05-05 07:39 24.78902 120.57194 32168 ft 380 kts 230°
2026-05-05 07:39 24.77003 120.55160 32741 ft 379 kts 230°
2026-05-05 07:40 24.75128 120.53155 33248 ft 379 kts 230°
2026-05-05 07:40 24.73183 120.51158 33787 ft 380 kts 226°
2026-05-05 07:40 24.71074 120.49296 34080 ft 386 kts 223°
2026-05-05 07:40 24.68881 120.47559 34085 ft 387 kts 221°
2026-05-05 07:41 24.64436 120.44249 34087 ft 386 kts 220°
2026-05-05 07:41 24.59997 120.40961 34086 ft 387 kts 221°
2026-05-05 07:42 24.55552 120.37631 34084 ft 386 kts 221°
2026-05-05 07:42 24.51113 120.34289 34090 ft 387 kts 220°
2026-05-05 07:43 24.46632 120.30907 34082 ft 386 kts 220°
2026-05-05 07:43 24.42195 120.27522 34085 ft 389 kts 221°
2026-05-05 07:44 24.37739 120.24049 34084 ft 389 kts 221°
2026-05-05 07:44 24.33332 120.20612 34085 ft 388 kts 221°
2026-05-05 07:45 24.28885 120.17150 34080 ft 391 kts 221°
2026-05-05 07:45 24.24438 120.13700 34068 ft 393 kts 221°
2026-05-05 07:46 24.19952 120.10226 34061 ft 398 kts 220°
2026-05-05 07:46 24.15288 120.06605 34063 ft 415 kts 220°
2026-05-05 07:47 24.10529 120.02927 34058 ft 416 kts 220°
2026-05-05 07:47 24.05757 119.99250 34045 ft 419 kts 220°
2026-05-05 07:48 24.00985 119.95573 34049 ft 420 kts 220°
2026-05-05 07:48 23.96182 119.91877 34043 ft 418 kts 220°
2026-05-05 07:49 23.91369 119.88174 34045 ft 419 kts 220°
2026-05-05 07:49 23.86591 119.84501 34048 ft 421 kts 220°
2026-05-05 07:50 23.81809 119.80827 34050 ft 419 kts 220°
2026-05-05 07:50 23.77047 119.77172 34059 ft 420 kts 220°
2026-05-05 07:51 23.72254 119.73494 34062 ft 420 kts 220°
2026-05-05 07:51 23.67445 119.69809 34061 ft 423 kts 220°
2026-05-05 07:52 23.62710 119.66123 34063 ft 420 kts 223°
2026-05-05 07:52 23.58556 119.61679 34065 ft 414 kts 235°
2026-05-05 07:53 23.55189 119.56500 34066 ft 416 kts 240°
2026-05-05 07:53 23.52130 119.51196 34067 ft 415 kts 241°
2026-05-05 07:54 23.49086 119.45840 34063 ft 415 kts 241°
2026-05-05 07:54 23.46035 119.40515 34064 ft 415 kts 241°
2026-05-05 07:55 23.42960 119.35194 34063 ft 415 kts 241°
2026-05-05 07:55 23.39851 119.29839 34056 ft 416 kts 240°
2026-05-05 07:56 23.36758 119.24528 34056 ft 415 kts 241°
2026-05-05 07:56 23.33670 119.19234 34052 ft 417 kts 240°
2026-05-05 07:57 23.30561 119.13907 34053 ft 418 kts 240°
2026-05-05 07:57 23.27466 119.08611 34056 ft 416 kts 241°
2026-05-05 07:58 23.24352 119.03288 34053 ft 417 kts 241°
2026-05-05 07:58 23.21244 118.97978 34056 ft 418 kts 240°
2026-05-05 07:59 23.18103 118.92620 34050 ft 418 kts 240°
2026-05-05 07:59 23.14970 118.87279 34052 ft 419 kts 240°
2026-05-05 08:00 23.11848 118.81965 34052 ft 418 kts 240°
2026-05-05 08:00 23.08706 118.76621 34049 ft 419 kts 240°
2026-05-05 08:01 23.05566 118.71285 34050 ft 419 kts 240°
2026-05-05 08:01 23.02431 118.65964 34054 ft 420 kts 241°
2026-05-05 08:02 22.99278 118.60619 34053 ft 420 kts 241°
2026-05-05 08:02 22.96118 118.55267 34053 ft 419 kts 241°
2026-05-05 08:03 22.92990 118.49988 34055 ft 419 kts 240°
2026-05-05 08:03 22.89801 118.44628 34055 ft 419 kts 240°
2026-05-05 08:04 22.86643 118.39330 34056 ft 421 kts 240°
2026-05-05 08:04 22.83453 118.33980 34052 ft 421 kts 240°
2026-05-05 08:05 22.80274 118.28654 34053 ft 420 kts 240°
2026-05-05 08:05 22.77114 118.23364 34050 ft 421 kts 240°
2026-05-05 08:06 22.73941 118.18058 34049 ft 420 kts 240°
2026-05-05 08:06 22.70753 118.12733 34055 ft 421 kts 240°
2026-05-05 08:07 22.67540 118.07368 34055 ft 422 kts 240°
2026-05-05 08:07 22.64357 118.02061 34058 ft 421 kts 240°
2026-05-05 08:08 22.61151 117.96722 34061 ft 422 kts 240°
2026-05-05 08:08 22.57967 117.91401 34058 ft 422 kts 240°
2026-05-05 08:09 22.54774 117.86023 34057 ft 422 kts 240°
2026-05-05 08:09 22.51612 117.80696 34058 ft 422 kts 240°
2026-05-05 08:10 22.48435 117.75352 34055 ft 422 kts 240°
2026-05-05 08:10 22.45246 117.69998 34056 ft 422 kts 240°
2026-05-05 08:11 22.42052 117.64642 34055 ft 423 kts 240°
2026-05-05 08:11 22.38841 117.59264 34053 ft 423 kts 240°
2026-05-05 08:12 22.35698 117.53892 34053 ft 423 kts 244°
2026-05-05 08:12 22.33639 117.48010 34052 ft 418 kts 260°
2026-05-05 08:13 22.33060 117.41825 34055 ft 417 kts 268°
2026-05-05 08:13 22.32939 117.35551 34051 ft 417 kts 269°
2026-05-05 08:14 22.32889 117.29269 34052 ft 417 kts 269°
2026-05-05 08:14 22.32817 117.23053 34054 ft 417 kts 269°
2026-05-05 08:15 22.32720 117.16800 34054 ft 416 kts 269°
2026-05-05 08:15 22.32607 117.10535 34054 ft 416 kts 268°
2026-05-05 08:16 22.32488 117.04301 34055 ft 416 kts 268°
2026-05-05 08:16 22.32363 116.98092 34054 ft 415 kts 268°
2026-05-05 08:17 22.32236 116.91849 34053 ft 415 kts 269°
2026-05-05 08:17 22.32106 116.85622 34051 ft 416 kts 269°
2026-05-05 08:18 22.31975 116.79430 34051 ft 416 kts 269°
2026-05-05 08:18 22.31840 116.73183 34049 ft 416 kts 269°
2026-05-05 08:19 22.31702 116.66935 34047 ft 417 kts 269°
2026-05-05 08:19 22.31562 116.60680 34046 ft 416 kts 269°
2026-05-05 08:20 22.31420 116.54472 34042 ft 418 kts 269°
2026-05-05 08:20 22.31276 116.48221 34042 ft 415 kts 269°
2026-05-05 08:21 22.31130 116.42024 34040 ft 415 kts 269°
2026-05-05 08:21 22.30981 116.35774 34036 ft 416 kts 269°
2026-05-05 08:22 22.30830 116.29562 34035 ft 415 kts 268°
2026-05-05 08:22 22.30676 116.23339 34032 ft 415 kts 268°
2026-05-05 08:23 22.30523 116.17222 33903 ft 402 kts 268°
2026-05-05 08:23 22.30448 116.14233 33346 ft 397 kts 268°
2026-05-05 08:23 22.30372 116.11282 32968 ft 388 kts 268°
2026-05-05 08:24 22.30298 116.08418 32691 ft 378 kts 268°
2026-05-05 08:24 22.30226 116.05600 32307 ft 371 kts 268°
2026-05-05 08:24 22.30155 116.02875 31931 ft 365 kts 268°
2026-05-05 08:24 22.30085 116.00168 31553 ft 358 kts 268°
2026-05-05 08:25 22.30014 115.97500 31172 ft 352 kts 268°
2026-05-05 08:25 22.29945 115.94890 30794 ft 346 kts 268°
2026-05-05 08:25 22.29876 115.92328 30416 ft 340 kts 268°
2026-05-05 08:25 22.29809 115.89803 30040 ft 335 kts 268°
2026-05-05 08:26 22.29742 115.87335 29666 ft 330 kts 268°
2026-05-05 08:26 22.29676 115.84874 29290 ft 324 kts 269°
2026-05-05 08:26 22.29610 115.82453 28908 ft 319 kts 268°
2026-05-05 08:26 22.29546 115.80102 28533 ft 315 kts 268°
2026-05-05 08:27 22.29483 115.77760 28156 ft 310 kts 268°
2026-05-05 08:27 22.29421 115.75462 27782 ft 306 kts 268°
2026-05-05 08:27 22.29360 115.73180 27404 ft 301 kts 268°
2026-05-05 08:27 22.29299 115.70944 27026 ft 297 kts 269°
2026-05-05 08:28 22.29239 115.68722 26649 ft 293 kts 269°
2026-05-05 08:28 22.29180 115.66554 26281 ft 290 kts 269°
2026-05-05 08:28 22.29121 115.64405 25909 ft 286 kts 269°
2026-05-05 08:28 22.29062 115.62265 25533 ft 283 kts 269°
2026-05-05 08:29 22.29003 115.60171 25163 ft 280 kts 269°
2026-05-05 08:29 22.28944 115.58074 24789 ft 277 kts 269°
2026-05-05 08:29 22.28886 115.56010 24416 ft 274 kts 269°
2026-05-05 08:30 22.28772 115.51957 23678 ft 269 kts 269°
2026-05-05 08:30 22.28715 115.49945 23315 ft 267 kts 269°
2026-05-05 08:30 22.28657 115.47932 22949 ft 265 kts 269°
2026-05-05 08:30 22.28600 115.45955 22592 ft 264 kts 269°
2026-05-05 08:31 22.28544 115.43987 22240 ft 263 kts 269°
2026-05-05 08:31 22.28488 115.42046 21897 ft 261 kts 269°
2026-05-05 08:31 22.28431 115.40093 21556 ft 260 kts 268°
2026-05-05 08:31 22.28374 115.38149 21212 ft 258 kts 268°
2026-05-05 08:32 22.28318 115.36218 20863 ft 257 kts 269°
2026-05-05 08:32 22.28262 115.34322 20524 ft 256 kts 268°
2026-05-05 08:32 22.28205 115.32397 20171 ft 255 kts 268°
2026-05-05 08:32 22.28145 115.30383 19848 ft 290 kts 268°
2026-05-05 08:33 22.28075 115.28046 19497 ft 336 kts 268°
2026-05-05 08:33 22.27996 115.25410 19156 ft 366 kts 268°
2026-05-05 08:33 22.27914 115.22671 18787 ft 360 kts 268°
2026-05-05 08:33 22.27837 115.20039 18396 ft 342 kts 268°
2026-05-05 08:34 22.27765 115.17554 18058 ft 320 kts 268°
2026-05-05 08:34 22.27699 115.15252 17712 ft 302 kts 268°
2026-05-05 08:34 22.27637 115.13041 17358 ft 287 kts 268°
2026-05-05 08:34 22.27576 115.10953 17008 ft 273 kts 268°
2026-05-05 08:35 22.27518 115.08946 16654 ft 261 kts 268°
2026-05-05 08:35 22.27462 115.07025 16303 ft 251 kts 268°
2026-05-05 08:35 22.27407 115.05181 15951 ft 242 kts 268°
2026-05-05 08:35 22.27354 115.03411 15599 ft 234 kts 268°
2026-05-05 08:36 22.27304 115.01673 15244 ft 229 kts 268°
2026-05-05 08:36 22.27253 114.99963 14891 ft 227 kts 268°
2026-05-05 08:36 22.27193 114.98252 14505 ft 229 kts 268°
2026-05-05 08:36 22.27127 114.96551 14031 ft 228 kts 268°
2026-05-05 08:37 22.27069 114.94855 13558 ft 226 kts 268°
2026-05-05 08:37 22.27018 114.93173 13085 ft 225 kts 268°
2026-05-05 08:37 22.26965 114.91484 12608 ft 224 kts 268°
2026-05-05 08:37 22.26909 114.89816 12135 ft 223 kts 267°
2026-05-05 08:38 22.26850 114.88153 11658 ft 222 kts 267°
2026-05-05 08:38 22.26791 114.86504 11188 ft 221 kts 267°
2026-05-05 08:38 22.26738 114.84860 10760 ft 219 kts 267°
2026-05-05 08:38 22.26688 114.83232 10325 ft 217 kts 267°
2026-05-05 08:39 22.26637 114.81596 9864 ft 217 kts 267°
2026-05-05 08:39 22.26584 114.79987 9419 ft 217 kts 266°
2026-05-05 08:39 22.26369 114.78385 8947 ft 217 kts 251°
2026-05-05 08:39 22.25568 114.77011 8489 ft 219 kts 226°
2026-05-05 08:40 22.24454 114.75927 8200 ft 215 kts 223°
2026-05-05 08:40 22.23323 114.74837 7881 ft 217 kts 225°
2026-05-05 08:40 22.22235 114.73740 7612 ft 216 kts 225°
2026-05-05 08:40 22.21151 114.72626 7339 ft 215 kts 225°
2026-05-05 08:41 22.20068 114.71508 7067 ft 214 kts 225°
2026-05-05 08:41 22.18998 114.70400 6802 ft 213 kts 225°
2026-05-05 08:41 22.17918 114.69290 6527 ft 213 kts 225°
2026-05-05 08:41 22.16851 114.68198 6285 ft 212 kts 225°
2026-05-05 08:42 22.15782 114.67093 6015 ft 211 kts 225°
2026-05-05 08:42 22.14725 114.65993 5985 ft 211 kts 225°
2026-05-05 08:42 22.13667 114.64895 5980 ft 211 kts 224°
2026-05-05 08:42 22.12590 114.63786 5983 ft 212 kts 224°
2026-05-05 08:43 22.11530 114.62699 5981 ft 212 kts 224°
2026-05-05 08:43 22.10452 114.61594 5982 ft 211 kts 224°
2026-05-05 08:43 22.09383 114.60496 5981 ft 212 kts 224°
2026-05-05 08:43 22.08307 114.59399 5979 ft 213 kts 224°
2026-05-05 08:44 22.07224 114.58297 5981 ft 213 kts 224°
2026-05-05 08:44 22.06156 114.57198 5980 ft 212 kts 224°
2026-05-05 08:44 22.05086 114.56104 5979 ft 212 kts 224°
2026-05-05 08:44 22.04009 114.55013 5979 ft 212 kts 224°
2026-05-05 08:45 22.02934 114.53924 5981 ft 213 kts 225°
2026-05-05 08:45 22.01986 114.52693 5977 ft 212 kts 241°
2026-05-05 08:45 22.01402 114.51245 5984 ft 213 kts 249°
2026-05-05 08:45 22.00893 114.49742 5979 ft 213 kts 249°
2026-05-05 08:46 22.00356 114.48252 5979 ft 212 kts 248°
2026-05-05 08:46 21.99803 114.46786 5980 ft 213 kts 247°
2026-05-05 08:46 21.99239 114.45309 5980 ft 213 kts 247°
2026-05-05 08:46 21.98674 114.43830 5980 ft 214 kts 247°
2026-05-05 08:47 21.98106 114.42351 5986 ft 213 kts 247°
2026-05-05 08:47 21.97547 114.40898 5978 ft 212 kts 247°
2026-05-05 08:47 21.96984 114.39432 5978 ft 212 kts 247°
2026-05-05 08:47 21.96417 114.37956 5978 ft 212 kts 248°
2026-05-05 08:48 21.95855 114.36490 5974 ft 213 kts 248°
2026-05-05 08:48 21.95293 114.35023 5980 ft 212 kts 248°
2026-05-05 08:48 21.94720 114.33530 5976 ft 214 kts 247°
2026-05-05 08:48 21.94154 114.32054 5970 ft 213 kts 247°
2026-05-05 08:49 21.93594 114.30595 5965 ft 213 kts 246°
2026-05-05 08:49 21.93018 114.29095 5966 ft 214 kts 247°
2026-05-05 08:49 21.92450 114.27615 5963 ft 213 kts 247°
2026-05-05 08:49 21.91886 114.26148 5965 ft 213 kts 246°
2026-05-05 08:50 21.91320 114.24675 5965 ft 213 kts 246°
2026-05-05 08:50 21.90751 114.23196 5965 ft 213 kts 247°
2026-05-05 08:50 21.90193 114.21744 5945 ft 204 kts 247°
2026-05-05 08:50 21.89689 114.20355 5852 ft 197 kts 252°
2026-05-05 08:51 21.89549 114.18916 5688 ft 193 kts 278°
2026-05-05 08:51 21.90044 114.17581 5429 ft 196 kts 298°
2026-05-05 08:51 21.90737 114.16341 5460 ft 191 kts 297°
2026-05-05 08:51 21.91438 114.14990 5721 ft 222 kts 296°
2026-05-05 08:52 21.92205 114.13489 5956 ft 235 kts 296°
2026-05-05 08:52 21.93004 114.11942 5962 ft 239 kts 297°
2026-05-05 08:52 21.93827 114.10361 5961 ft 240 kts 297°
2026-05-05 08:52 21.94642 114.08791 5960 ft 240 kts 297°
2026-05-05 08:53 21.95459 114.07217 5960 ft 241 kts 297°
2026-05-05 08:53 21.96267 114.05655 5963 ft 241 kts 296°
2026-05-05 08:53 21.97080 114.04076 5962 ft 241 kts 297°
2026-05-05 08:53 21.97896 114.02486 5961 ft 240 kts 297°
2026-05-05 08:54 21.98699 114.00922 5960 ft 241 kts 297°
2026-05-05 08:54 21.99516 113.99336 5960 ft 240 kts 297°
2026-05-05 08:54 22.00333 113.97752 5963 ft 241 kts 297°
2026-05-05 08:54 22.01142 113.96185 5964 ft 241 kts 297°
2026-05-05 08:55 22.01969 113.94604 5966 ft 241 kts 297°
2026-05-05 08:55 22.02789 113.93044 5967 ft 240 kts 297°
2026-05-05 08:55 22.03611 113.91466 5970 ft 239 kts 297°
2026-05-05 08:55 22.04417 113.89901 5970 ft 239 kts 296°
2026-05-05 08:56 22.05214 113.88341 5973 ft 239 kts 296°
2026-05-05 08:56 22.06016 113.86790 5896 ft 231 kts 296°
2026-05-05 08:56 22.06787 113.85303 5798 ft 222 kts 297°
2026-05-05 08:56 22.07521 113.83880 5695 ft 214 kts 296°
2026-05-05 08:57 22.08233 113.82498 5609 ft 205 kts 297°
2026-05-05 08:57 22.08906 113.81188 5504 ft 197 kts 297°
2026-05-05 08:57 22.09568 113.79897 5247 ft 198 kts 296°
2026-05-05 08:57 22.10265 113.78597 4989 ft 199 kts 302°
2026-05-05 08:58 22.11257 113.77581 4705 ft 203 kts 334°
2026-05-05 08:58 22.12640 113.77253 4511 ft 199 kts 356°
2026-05-05 08:58 22.13992 113.77161 4432 ft 189 kts 355°
2026-05-05 08:58 22.15249 113.77042 4381 ft 174 kts 354°
2026-05-05 08:59 22.16421 113.76910 4308 ft 159 kts 354°
2026-05-05 08:59 22.17454 113.76792 4145 ft 144 kts 354°
2026-05-05 08:59 22.18460 113.76678 3747 ft 145 kts 355°
2026-05-05 08:59 22.19454 113.76565 3371 ft 145 kts 356°
2026-05-05 09:00 22.20457 113.76450 2988 ft 145 kts 357°
2026-05-05 09:00 22.21459 113.76337 2634 ft 142 kts 358°
2026-05-05 09:00 22.22436 113.76224 2274 ft 140 kts 358°
2026-05-05 09:00 22.23392 113.76115 1918 ft 139 kts 359°
2026-05-05 09:01 22.24355 113.76006 1574 ft 136 kts 358°
2026-05-05 09:01 22.25272 113.75902 1439 ft 131 kts 358°
2026-05-05 09:01 22.26202 113.75797 1485 ft 136 kts 359°
2026-05-05 09:01 22.27144 113.75716 1473 ft 133 kts
2026-05-05 09:02 22.27993 113.76043 1478 ft 127 kts 44°
2026-05-05 09:02 22.28525 113.76792 1479 ft 127 kts 68°
2026-05-05 09:02 22.28747 113.77711 1487 ft 127 kts 76°
2026-05-05 09:02 22.29028 113.78619 1486 ft 127 kts 71°
2026-05-05 09:03 22.29327 113.79520 1490 ft 127 kts 72°
2026-05-05 09:03 22.29619 113.80424 1489 ft 127 kts 72°
2026-05-05 09:03 22.29911 113.81324 1361 ft 129 kts 72°
2026-05-05 09:03 22.30209 113.82238 1186 ft 127 kts 72°
2026-05-05 09:04 22.30503 113.83146 1017 ft 128 kts 71°
2026-05-05 09:04 22.30796 113.84051 846 ft 128 kts 71°
2026-05-05 09:04 22.31086 113.84975 675 ft 130 kts 71°
2026-05-05 09:04 22.31377 113.85889 536 ft 129 kts 70°
2026-05-05 09:05 22.31699 113.86807 335 ft 131 kts 67°
2026-05-05 09:05 22.32019 113.87723 170 ft 131 kts 68°
2026-05-05 09:05 22.32301 113.88654 71 ft 126 kts 69°
2026-05-05 09:05 22.32586 113.89500 35 ft 103 kts 70°
2026-05-05 09:06 22.32712 113.89929 35 ft 18 kts 89°
2026-05-05 09:06 22.32712 113.90012 35 ft 10 kts 98°
2026-05-05 09:06 22.32700 113.90093 35 ft 11 kts 100°
2026-05-05 09:06 22.32684 113.90175 35 ft 11 kts 102°
2026-05-05 09:07 22.32647 113.90249 35 ft 11 kts 134°
2026-05-05 09:07 22.32580 113.90292 35 ft 11 kts 161°
2026-05-05 09:07 22.32505 113.90321 35 ft 11 kts 162°
2026-05-05 09:07 22.32424 113.90347 35 ft 12 kts 161°
2026-05-05 09:08 22.32342 113.90380 35 ft 12 kts 161°
2026-05-05 09:08 22.32256 113.90412 35 ft 14 kts 160°
2026-05-05 09:08 22.32133 113.90460 35 ft 20 kts 160°
2026-05-05 09:08 22.31998 113.90508 35 ft 20 kts 162°
2026-05-05 09:09 22.31863 113.90557 35 ft 20 kts 161°
2026-05-05 09:09 22.31727 113.90606 35 ft 20 kts 160°
2026-05-05 09:09 22.31667 113.90713 35 ft 18 kts 77°
2026-05-05 09:09 22.31707 113.90846 35 ft 18 kts 68°
2026-05-05 09:10 22.31750 113.90977 35 ft 18 kts 72°
2026-05-05 09:10 22.31791 113.91108 35 ft 18 kts 80°
2026-05-05 09:10 22.31745 113.91222 35 ft 16 kts 97°
2026-05-05 09:10 22.31769 113.91341 35 ft 16 kts 82°
2026-05-05 09:11 22.31698 113.91415 35 ft 15 kts 158°
2026-05-05 09:11 22.31595 113.91453 35 ft 17 kts 161°
2026-05-05 09:11 22.31475 113.91501 35 ft 18 kts 160°
2026-05-05 09:11 22.31361 113.91492 35 ft 17 kts 233°
2026-05-05 09:12 22.31258 113.91476 35 ft 16 kts 162°
2026-05-05 09:12 22.31150 113.91516 35 ft 16 kts 160°
2026-05-05 09:12 22.31074 113.91573 35 ft 12 kts 107°
2026-05-05 09:12 22.31028 113.91633 35 ft 10 kts 81°
2026-05-05 09:13 22.31040 113.91670 35 ft 0 kts 72°